Regional Weather Roundup
Issued by NWS

Home | Current Version | Previous Version | Text Only | Print | Product List | Glossary Off
Versions: 1 2 3 4 5 6 7 8 9 10 11 12 13 14 15 16 17 18 19 20 21 22 23 24 25 26 27 28 29 30 31 32 33 34 35 36 37 38 39 40 41 42 43 44 45 46 47 48 49 50

000
ASUS43 KOAX 310702
RWRNE

WEATHER ROUNDUP FOR NEBRASKA
NATIONAL WEATHER SERVICE OMAHA NE
200 AM CDT TUE MAY 31 2016

NOTES: SATELLITE DATA IS BEING USED TO AUGMENT CLOUD COVER ABOVE
       12000 FEET.
       "FAIR" INDICATES FEW OR NO CLOUDS BELOW 12,000 FEET WITH NO
       SIGNIFICANT WEATHER AND/OR OBSTRUCTIONS TO VISIBILITY.

  * THESE STATIONS DO NOT REPORT WEATHER SUCH AS RAIN...SNOW OR FOG.

NEZ001>004-019>022-054>056-310800-
NEBRASKA PANHANDLE

CITY           SKY/WX    TMP DP  RH WIND       PRES   REMARKS
SCOTTSBLUFF    CLOUDY    54  45  71 NW10      30.12R
ALLIANCE       LGT RAIN  51  48  89 N9        30.07F
CHADRON        CLOUDY    51  48  89 CALM      30.09R
SIDNEY         LGT RAIN  53  49  86 N14       30.09R
$$

NEZ057>060-069>072-079>082-310800-
SOUTHWEST NEBRASKA

CITY           SKY/WX    TMP DP  RH WIND       PRES   REMARKS
NORTH PLATTE   CLEAR     56  52  86 NW5       29.97R
IMPERIAL       CLEAR     57  53  86 NW7       30.01R
LEXINGTON      CLOUDY    58  54  85 W7        29.93R
MCCOOK         CLOUDY    56  53  90 W7        29.94R
$$

NEZ005>010-023>029-035>040-094-310800-
NORTH CENTRAL NEBRASKA

CITY           SKY/WX    TMP DP  RH WIND       PRES   REMARKS
VALENTINE      CLOUDY    55  47  74 NW7       29.96F
AINSWORTH      CLOUDY    57  54  90 NW10      29.94F
BROKEN BOW     CLOUDY    59  54  83 N15       29.91R
ORD            CLOUDY    62  57  83 N13       29.89R
$$

NEZ041-046>049-061>064-073>077-083>087-310800-
SOUTH CENTRAL NEBRASKA

CITY           SKY/WX    TMP DP  RH WIND       PRES   REMARKS
GRAND ISLAND   LGT RAIN  61  59  93 SE22      29.83F
HASTINGS       LGT RAIN  59  59 100 E9        29.86F
KEARNEY *      CLOUDY    59  55  88 CALM      29.89F
YORK           LGT RAIN  63  59  88 CALM      29.89F
$$

NEZ011>018-030>034-042>045-310800-
NORTHEAST NEBRASKA

CITY           SKY/WX    TMP DP  RH WIND       PRES   REMARKS
NORFOLK        CLOUDY    59  57  93 CALM      29.88S
BLAIR          CLOUDY    68  62  81 S16G24    29.88R
FREMONT        CLOUDY    69  61  75 S13G18    29.88R
TEKAMAH        CLOUDY    68  61  78 S14       29.85F
$$

NEZ050>053-065>068-078-088>093-310800-
SOUTHEAST NEBRASKA

CITY           SKY/WX    TMP DP  RH WIND       PRES   REMARKS
LINCOLN        CLOUDY    72  61  68 SW15G23   29.91R
OMAHA EPPLEY   CLOUDY    70  62  76 S13       29.86F
FALLS CITY     LGT RAIN  67  60  78 S8        29.91F
PLATTSMOUTH    CLOUDY    68  64  86 S12       29.89S
$$

NEZ044-045-051>053-067-310800-
OMAHA AREA

CITY           SKY/WX    TMP DP  RH WIND       PRES   REMARKS
OMAHA EPPLEY   CLOUDY    70  62  76 S13       29.86F
BLAIR          CLOUDY    68  62  81 S16G24    29.88R
FREMONT        CLOUDY    69  61  75 S13G18    29.88R
PLATTSMOUTH    CLOUDY    68  64  86 S12       29.89S
$$




USA.gov is the U.S. government's official web portal to all federal, state and local government web resources and services.